Flag for Kiribati Weather past 2 weeks in Kiritimati, Christmas Island, Kiribati

Now
81 °F

Overcast.


Feels Like: 87 °F
Forecast: 79 / 85 °F
Wind: 2 mph from North

Location: Christmas / Cassidy

Current Time: Jul 28, 2015 at 11:10:40 PM

Latest Report: Jul 28, 2015 at 10:00 PM


Visibility: N/A

Pressure: 29.80 "Hg

Humidity: 89%

Dew point: 77 °F

Location of KiritimatiLocation

Historic Weather in Kiritimati — Graph

°F

Kiritimati temperature yesterday

Maximum temperature yesterday: 84 °F (at 12:00 PM)
Minimum temperature yesterday: 77 °F (at 12:00 AM)
Average temperature yesterday: 81 °F

Past Weeks' High & Low Weather Summary

 TemperatureHumidityPressure
High90 °F (Jul 15, 11:00 AM)100% (Jul 15, 3:00 AM)29.89 "Hg (Jul 15, 3:00 AM)
Low75 °F (Jul 15, 3:00 AM)63% (Jul 15, 11:00 AM)29.74 "Hg (Jul 14, 4:00 PM)
Average81 °F85%29.82 "Hg
* Reported Jul 14 1:00 AM — Jul 28 10:00 PM, Kiritimati, Weather by CustomWeather, © 2015

Note: Actual official high and low records may vary slightly from our data, if they occured in-between our weather recording intervals... More about our weather records

Advertising

Kiritimati weather history for previous 24 hours

 ConditionsComfort  
Time TempWeatherWind HumidityBarometerVisibility
10:00 PM
Tue, Jul 28
81 °FOvercast.2 mph89%29.80 "HgN/A
9:00 PM81 °FOvercast.3 mph89%29.80 "HgN/A
8:00 PM82 °FPassing clouds.2 mph84%29.80 "HgN/A
7:00 PM82 °FPartly cloudy.1 mph84%29.77 "HgN/A
6:00 PM82 °FPartly cloudy.1 mph84%29.77 "HgN/A
5:00 PM82 °FPartly cloudy.3 mph84%29.77 "HgN/A
4:00 PM82 °FScattered showers. Broken clouds.5 mph79%29.77 "HgN/A
3:00 PM82 °FScattered showers. Broken clouds.12 mph79%29.77 "HgN/A
2:00 PM86 °FScattered showers. Broken clouds.7 mph79%29.80 "HgN/A
1:00 PM82 °FScattered showers. Broken clouds.5 mph84%29.83 "HgN/A
12:00 PM82 °FScattered showers. Broken clouds.7 mph79%29.83 "HgN/A
11:00 AM81 °FScattered showers. Broken clouds.7 mph84%29.86 "HgN/A
10:00 AM81 °FScattered showers. Broken clouds.7 mph84%29.80 "HgN/A
9:00 AM79 °FScattered showers. Broken clouds.7 mph89%29.86 "HgN/A
6:00 AM79 °FScattered clouds.No wind94%29.77 "HgN/A
5:00 AM81 °FPassing clouds.5 mph89%29.80 "HgN/A
4:00 AM81 °FPassing clouds.2 mph89%29.80 "HgN/A
2:00 AM81 °FWarm.N/A89%29.80 "HgN/A
1:00 AM81 °FPassing clouds.7 mph94%29.80 "HgN/A
12:00 AM81 °FPassing clouds.2 mph89%29.83 "HgN/A
11:00 PM
Mon, Jul 27
81 °FPassing clouds.2 mph84%29.83 "HgN/A
Weather by CustomWeather, © 2015

See weather overviewHow to use our weather pages